�������l�o���
Date,Time,MP-1(��Sv/h),MP-2(��Sv/h),MP-3(��Sv/h),MP-4(��Sv/h),MP-5(��Sv/h),MP-6(��Sv/h),MP-7(��Sv/h),MP-8(��Sv/h),����,����(m/s),���J
2021/03/28,00:00,0.640,0.943,0.594,1.171,0.830,0.374,0.659,0.616,��쓌,5.0,��
2021/03/28,00:10,0.640,0.945,0.596,1.170,0.832,0.374,0.659,0.615,��쓌,4.3,��
2021/03/28,00:20,0.640,0.943,0.595,1.168,0.829,0.375,0.658,0.616,��,5.4,��
2021/03/28,00:30,0.639,0.943,0.594,1.171,0.829,0.374,0.657,0.617,��,5.4,��
2021/03/28,00:40,0.641,0.941,0.594,1.172,0.829,0.374,0.660,0.616,��,4.1,��
2021/03/28,00:50,0.640,0.944,0.595,1.169,0.829,0.375,0.659,0.618,��,4.6,��
2021/03/28,01:00,0.640,0.944,0.594,1.171,0.832,0.375,0.659,0.617,��,4.2,��
2021/03/28,01:10,0.641,0.944,0.594,1.171,0.830,0.375,0.658,0.617,��,5.4,��
2021/03/28,01:20,0.639,0.942,0.596,1.169,0.829,0.374,0.658,0.617,��,6.6,��
2021/03/28,01:30,0.641,0.942,0.593,1.171,0.830,0.374,0.658,0.618,��,7.9,��
2021/03/28,01:40,0.641,0.944,0.594,1.169,0.831,0.376,0.657,0.617,��,5.3,��
2021/03/28,01:50,0.640,0.943,0.594,1.171,0.828,0.375,0.659,0.615,��쓌,3.6,��
2021/03/28,02:00,0.642,0.944,0.594,1.171,0.832,0.374,0.659,0.617,��쓌,3.0,��
2021/03/28,02:10,0.642,0.944,0.596,1.171,0.832,0.375,0.658,0.616,��쓌,3.3,��
2021/03/28,02:20,0.642,0.946,0.594,1.170,0.831,0.374,0.657,0.617,��쓌,3.4,��
2021/03/28,02:30,0.641,0.943,0.596,1.171,0.830,0.374,0.658,0.617,��,4.8,��
2021/03/28,02:40,0.642,0.943,0.595,1.170,0.831,0.376,0.658,0.616,��,5.1,��
2021/03/28,02:50,0.641,0.942,0.596,1.172,0.829,0.375,0.657,0.617,��쓌,4.3,��
2021/03/28,03:00,0.644,0.944,0.595,1.171,0.829,0.375,0.659,0.618,��,3.3,��
2021/03/28,03:10,0.640,0.944,0.594,1.172,0.829,0.374,0.659,0.618,��쓌,2.5,��
2021/03/28,03:20,0.641,0.945,0.595,1.173,0.831,0.375,0.657,0.617,��쓌,4.3,��
2021/03/28,03:30,0.641,0.944,0.593,1.172,0.832,0.375,0.658,0.615,��,4.9,��
2021/03/28,03:40,0.642,0.945,0.593,1.173,0.830,0.376,0.660,0.617,��,5.7,��
2021/03/28,03:50,0.641,0.944,0.596,1.172,0.830,0.374,0.660,0.617,��,7.4,��
2021/03/28,04:00,0.640,0.945,0.596,1.171,0.828,0.376,0.659,0.617,��,8.2,��
2021/03/28,04:10,0.640,0.944,0.593,1.171,0.829,0.376,0.660,0.617,��,8.9,��
2021/03/28,04:20,0.641,0.942,0.594,1.170,0.831,0.375,0.661,0.618,��,9.2,��
2021/03/28,04:30,0.642,0.944,0.595,1.170,0.830,0.374,0.658,0.619,��,8.5,��
2021/03/28,04:40,0.642,0.942,0.596,1.171,0.830,0.374,0.659,0.619,��,7.8,��
2021/03/28,04:50,0.641,0.942,0.596,1.172,0.831,0.375,0.659,0.618,��,7.8,��
2021/03/28,05:00,0.642,0.943,0.595,1.172,0.831,0.376,0.659,0.617,��,9.0,��
2021/03/28,05:10,0.642,0.943,0.596,1.169,0.830,0.375,0.659,0.619,��,7.2,�L
2021/03/28,05:20,0.641,0.944,0.596,1.170,0.831,0.374,0.661,0.618,��,8.2,�L
2021/03/28,05:30,0.640,0.942,0.595,1.168,0.830,0.375,0.658,0.619,��,6.9,��
2021/03/28,05:40,0.643,0.944,0.595,1.174,0.831,0.377,0.659,0.619,��,6.9,��
2021/03/28,05:50,0.642,0.941,0.596,1.169,0.829,0.376,0.660,0.618,��,6.7,�L
2021/03/28,06:00,0.641,0.945,0.596,1.170,0.831,0.375,0.659,0.618,��,8.2,��
2021/03/28,06:10,0.641,0.944,0.596,1.170,0.833,0.375,0.659,0.619,��,9.9,�L
2021/03/28,06:20,0.642,0.943,0.597,1.172,0.829,0.376,0.659,0.617,��,8.4,�L
2021/03/28,06:30,0.641,0.944,0.596,1.171,0.828,0.376,0.659,0.619,��,9.9,�L
2021/03/28,06:40,0.643,0.942,0.594,1.173,0.828,0.374,0.659,0.617,��,8.4,�L
2021/03/28,06:50,0.643,0.942,0.597,1.171,0.828,0.377,0.658,0.618,��,8.7,�L
2021/03/28,07:00,0.644,0.945,0.597,1.169,0.828,0.375,0.658,0.620,��,8.7,��
2021/03/28,07:10,0.644,0.942,0.597,1.171,0.828,0.375,0.660,0.618,��,9.4,��
2021/03/28,07:20,0.642,0.942,0.597,1.170,0.829,0.376,0.659,0.618,��,10.2,��
2021/03/28,07:30,0.643,0.941,0.597,1.170,0.829,0.375,0.660,0.617,��,10.3,�L
2021/03/28,07:40,0.643,0.941,0.597,1.172,0.827,0.375,0.658,0.617,��,9.2,�L
2021/03/28,07:50,0.641,0.942,0.596,1.171,0.830,0.376,0.658,0.619,��,9.3,��
2021/03/28,08:00,0.641,0.941,0.598,1.172,0.828,0.373,0.657,0.618,��,12.0,��
2021/03/28,08:10,0.642,0.941,0.594,1.169,0.828,0.374,0.659,0.620,��,11.6,��
2021/03/28,08:20,0.643,0.941,0.597,1.172,0.829,0.374,0.659,0.619,��,10.0,��
2021/03/28,08:30,0.642,0.943,0.596,1.171,0.829,0.375,0.659,0.618,��,11.7,��
2021/03/28,08:40,0.641,0.943,0.597,1.173,0.828,0.374,0.660,0.619,��,12.4,��
2021/03/28,08:50,0.642,0.944,0.596,1.172,0.828,0.374,0.658,0.616,��,9.3,��
2021/03/28,09:00,0.641,0.942,0.595,1.172,0.829,0.375,0.658,0.618,��,10.8,��
2021/03/28,09:10,0.640,0.944,0.595,1.172,0.829,0.374,0.660,0.618,��,11.3,��
2021/03/28,09:20,0.641,0.941,0.595,1.173,0.830,0.375,0.657,0.616,��,11.0,�L
2021/03/28,09:30,0.641,0.941,0.594,1.172,0.829,0.374,0.659,0.616,��,10.7,��
2021/03/28,09:40,0.641,0.943,0.596,1.173,0.828,0.375,0.660,0.617,��,10.0,��
2021/03/28,09:50,0.641,0.940,0.596,1.174,0.830,0.376,0.658,0.617,��,9.5,�L
2021/03/28,10:00,0.640,0.943,0.595,1.175,0.828,0.375,0.658,0.617,��,10.0,��
2021/03/28,10:10,0.641,0.941,0.595,1.172,0.828,0.374,0.659,0.617,��,10.0,��
2021/03/28,10:20,0.643,0.941,0.594,1.173,0.828,0.375,0.659,0.616,��,11.3,��
2021/03/28,10:30,0.638,0.940,0.595,1.173,0.827,0.375,0.659,0.615,��,11.0,��
2021/03/28,10:40,0.642,0.941,0.596,1.173,0.829,0.376,0.660,0.616,��,10.2,��
2021/03/28,10:50,0.641,0.942,0.595,1.172,0.829,0.376,0.660,0.617,��,9.5,��
2021/03/28,11:00,0.643,0.944,0.594,1.173,0.827,0.376,0.659,0.618,��,9.8,��
2021/03/28,11:10,0.642,0.944,0.595,1.172,0.830,0.375,0.658,0.615,��,7.3,��
2021/03/28,11:20,0.644,0.942,0.595,1.173,0.827,0.376,0.659,0.615,��쓌,7.6,��
2021/03/28,11:30,0.641,0.940,0.595,1.173,0.829,0.376,0.658,0.617,��,10.2,��
2021/03/28,11:40,0.641,0.942,0.594,1.174,0.829,0.376,0.660,0.617,��,12.4,��
2021/03/28,11:50,0.643,0.944,0.595,1.172,0.828,0.376,0.659,0.616,��,14.2,�L
2021/03/28,12:00,0.643,0.942,0.595,1.175,0.830,0.375,0.659,0.615,��,13.3,�L
2021/03/28,12:10,0.643,0.943,0.596,1.175,0.828,0.376,0.658,0.616,��,11.0,�L
2021/03/28,12:20,0.642,0.944,0.597,1.174,0.830,0.375,0.659,0.616,��,11.4,��
2021/03/28,12:30,0.643,0.945,0.594,1.173,0.828,0.376,0.659,0.616,��,11.7,�L
2021/03/28,12:40,0.641,0.942,0.595,1.175,0.830,0.377,0.659,0.616,��,11.1,�L
2021/03/28,12:50,0.641,0.944,0.595,1.175,0.828,0.376,0.658,0.616,��,13.8,�L
2021/03/28,13:00,0.642,0.943,0.595,1.173,0.830,0.377,0.659,0.617,��,12.0,�L
2021/03/28,13:10,0.641,0.945,0.597,1.173,0.827,0.375,0.658,0.615,��,12.1,�L
2021/03/28,13:20,0.642,0.944,0.595,1.173,0.830,0.377,0.659,0.616,��,10.2,��
2021/03/28,13:30,0.642,0.943,0.594,1.175,0.830,0.377,0.659,0.618,��,10.0,�L
2021/03/28,13:40,0.641,0.944,0.595,1.176,0.828,0.376,0.658,0.618,��,11.1,�L
2021/03/28,13:50,0.642,0.942,0.597,1.172,0.830,0.376,0.658,0.616,��,11.7,�L
2021/03/28,14:00,0.642,0.944,0.596,1.174,0.831,0.377,0.660,0.617,��,12.4,�L
2021/03/28,14:10,0.641,0.944,0.595,1.174,0.830,0.376,0.658,0.615,��,11.3,�L
2021/03/28,14:20,0.642,0.945,0.598,1.174,0.829,0.378,0.660,0.616,��,9.2,�L
2021/03/28,14:30,0.642,0.943,0.596,1.174,0.828,0.377,0.659,0.615,��,9.6,�L
2021/03/28,14:40,0.640,0.936,0.596,1.171,0.823,0.378,0.656,0.614,��,11.0,�L
2021/03/28,14:50,0.640,0.932,0.592,1.168,0.817,0.380,0.656,0.613,��,10.0,�L
2021/03/28,15:00,0.638,0.926,0.589,1.165,0.812,0.378,0.655,0.611,��,9.2,�L
2021/03/28,15:10,0.636,0.924,0.590,1.165,0.812,0.378,0.653,0.611,��,9.9,�L
2021/03/28,15:20,0.631,0.917,0.585,1.154,0.805,0.375,0.651,0.609,��,9.6,�L
2021/03/28,15:30,0.628,0.912,0.584,1.146,0.799,0.375,0.650,0.608,��,9.4,�L
2021/03/28,15:40,0.627,0.907,0.585,1.141,0.797,0.374,0.650,0.609,��,9.8,�L
2021/03/28,15:50,0.628,0.908,0.585,1.138,0.801,0.376,0.652,0.610,��,9.7,�L
2021/03/28,16:00,0.628,0.912,0.587,1.139,0.801,0.375,0.649,0.609,��,12.4,�L
2021/03/28,16:10,0.630,0.913,0.585,1.138,0.800,0.375,0.649,0.609,��,11.1,�L
2021/03/28,16:20,0.629,0.912,0.584,1.138,0.801,0.374,0.650,0.610,��,11.3,�L
2021/03/28,16:30,0.629,0.914,0.586,1.139,0.802,0.374,0.650,0.610,��,10.7,��
2021/03/28,16:40,0.630,0.916,0.586,1.137,0.802,0.373,0.651,0.610,��,11.9,��
2021/03/28,16:50,0.627,0.914,0.585,1.137,0.801,0.373,0.650,0.611,��,11.1,��
2021/03/28,17:00,0.628,0.912,0.584,1.138,0.800,0.373,0.651,0.611,��,11.1,��
2021/03/28,17:10,0.626,0.910,0.586,1.136,0.801,0.373,0.650,0.611,��,10.8,��
2021/03/28,17:20,0.626,0.909,0.583,1.137,0.801,0.373,0.651,0.611,��,11.3,��
2021/03/28,17:30,0.626,0.909,0.584,1.137,0.802,0.373,0.649,0.612,��,9.8,��
2021/03/28,17:40,0.625,0.912,0.584,1.137,0.801,0.372,0.652,0.611,��,9.8,��
2021/03/28,17:50,0.625,0.912,0.583,1.137,0.800,0.372,0.649,0.611,��,11.3,�L
2021/03/28,18:00,0.625,0.914,0.585,1.137,0.800,0.373,0.652,0.612,��,10.8,�L
2021/03/28,18:10,0.627,0.913,0.583,1.139,0.802,0.371,0.652,0.611,��,11.3,�L
2021/03/28,18:20,0.626,0.912,0.585,1.139,0.803,0.373,0.652,0.611,��,10.6,�L
2021/03/28,18:30,0.628,0.914,0.585,1.140,0.802,0.373,0.651,0.613,��,10.5,�L
2021/03/28,18:40,0.627,0.915,0.584,1.139,0.803,0.375,0.653,0.614,��,10.3,�L
2021/03/28,18:50,0.629,0.917,0.586,1.140,0.804,0.374,0.650,0.614,��,10.9,�L
2021/03/28,19:00,0.628,0.916,0.585,1.140,0.801,0.375,0.651,0.613,��,10.3,�L
2021/03/28,19:10,0.629,0.912,0.587,1.140,0.801,0.376,0.651,0.612,��,10.2,�L
2021/03/28,19:20,0.628,0.912,0.586,1.137,0.796,0.375,0.650,0.610,��,10.8,�L
2021/03/28,19:30,0.627,0.906,0.583,1.135,0.792,0.375,0.649,0.608,��,10.7,�L
2021/03/28,19:40,0.627,0.905,0.584,1.135,0.793,0.374,0.648,0.605,��,10.0,�L
2021/03/28,19:50,0.626,0.903,0.583,1.130,0.791,0.375,0.647,0.607,��,9.8,�L
2021/03/28,20:00,0.625,0.903,0.585,1.130,0.792,0.375,0.647,0.607,��,11.7,�L
2021/03/28,20:10,0.625,0.901,0.582,1.129,0.791,0.375,0.646,0.606,��,11.6,�L
2021/03/28,20:20,0.626,0.902,0.584,1.126,0.789,0.373,0.646,0.606,��,11.6,�L
2021/03/28,20:30,0.627,0.900,0.583,1.126,0.790,0.375,0.647,0.605,��,11.1,�L
2021/03/28,20:40,0.625,0.902,0.585,1.124,0.791,0.374,0.646,0.604,��,11.4,�L
2021/03/28,20:50,0.625,0.902,0.583,1.122,0.790,0.374,0.647,0.605,��,10.5,�L
2021/03/28,21:00,0.623,0.899,0.583,1.123,0.788,0.374,0.646,0.605,��,11.1,�L
2021/03/28,21:10,0.622,0.898,0.582,1.120,0.786,0.373,0.645,0.605,��,10.5,�L
2021/03/28,21:20,0.621,0.897,0.580,1.120,0.785,0.373,0.644,0.605,��,10.2,�L
2021/03/28,21:30,0.620,0.893,0.580,1.118,0.785,0.371,0.644,0.603,��쐼,9.3,�L
2021/03/28,21:40,0.621,0.898,0.580,1.115,0.785,0.371,0.645,0.605,��,9.4,�L
2021/03/28,21:50,0.621,0.897,0.580,1.116,0.784,0.374,0.645,0.604,��,9.3,�L
2021/03/28,22:00,0.621,0.898,0.580,1.116,0.784,0.373,0.643,0.604,��,9.0,�L
2021/03/28,22:10,0.624,0.898,0.580,1.119,0.786,0.373,0.644,0.603,��,8.6,�L
2021/03/28,22:20,0.624,0.900,0.580,1.119,0.786,0.373,0.645,0.604,��,8.4,�L
2021/03/28,22:30,0.622,0.900,0.581,1.116,0.788,0.374,0.644,0.606,��,8.3,�L
2021/03/28,22:40,0.622,0.901,0.582,1.119,0.787,0.373,0.643,0.607,��,8.3,�L
2021/03/28,22:50,0.624,0.900,0.581,1.118,0.790,0.371,0.645,0.604,��,9.9,�L
2021/03/28,23:00,0.622,0.900,0.581,1.119,0.788,0.373,0.645,0.606,��쐼,9.3,�L
2021/03/28,23:10,0.623,0.902,0.579,1.118,0.789,0.372,0.645,0.607,��,9.4,�L
2021/03/28,23:20,0.621,0.902,0.579,1.120,0.788,0.372,0.644,0.608,��,8.6,�L
2021/03/28,23:30,0.624,0.901,0.581,1.118,0.787,0.371,0.645,0.607,��,7.9,�L
2021/03/28,23:40,0.621,0.901,0.579,1.118,0.789,0.373,0.645,0.608,��,7.7,�L
2021/03/28,23:50,0.621,0.901,0.581,1.118,0.787,0.373,0.644,0.606,��,6.9,�L
